Wetbulb
55.35 55.15 55.05 54.98 54.86 54.39 53.69 53.47 53.26 53.23 53.35 53.44 53.47 54.07 54.02 54.30 54.20 54.41 54.86 56.10 57.16 58.97 57.80 56.84 55.85 54.79 51.11 45.18 45.56 55.27 58.29 57.81 53.68 50.89 46.85 44.40 41.64 40.72 36.77 39.11 40.36 38.01 39.77 41.91 42.90 42.89 42.04
54.29 54.22 53.96 53.73 54.03 53.81 53.72 53.47 52.96 52.76 52.77 52.74 52.59 52.94 53.01 52.97 53.73 53.33 54.10 55.61 56.62 58.76 57.08 56.33 55.45 54.62 48.43 40.03 51.53 53.04 53.10 54.34 51.45 48.62 46.49 45.96 42.81 43.29 38.85 38.17 36.76 39.10 39.32 39.40 40.79 40.87 42.10
54.24 54.20 53.84 53.36 52.98 53.17 53.16 53.22 52.75 52.43 52.51 52.54 52.05 51.78 51.57 51.89 52.81 52.80 53.34 55.06 55.68 58.35 56.59 56.36 54.86 51.63 46.99 44.56 51.42 50.85 49.60 51.06 51.71 49.07 45.07 47.35 46.55 42.78 41.65 37.59 41.40 39.58 34.95 37.24 38.24 39.37 38.54
54.47 54.03 53.66 52.65 52.27 52.36 52.57 52.32 52.39 52.18 52.26 52.31 52.37 51.61 51.25 51.35 52.12 52.81 53.76 54.42 57.47 56.00 56.09 55.10 54.62 50.51 43.07 52.20 52.12 50.55 49.99 48.34 51.20 50.38 48.28 48.75 48.30 43.80 40.72 41.48 38.50 34.83 34.89 28.67 36.51 38.44 39.59
54.82 54.15 53.41 53.07 52.19 52.03 51.86 51.70 51.82 51.75 51.81 51.93 51.82 51.77 51.70 51.21 51.84 54.18 54.81 56.02 55.33 55.47 55.70 54.39 49.41 47.28 41.75 51.00 47.28 49.78 49.64 46.23 48.14 48.51 48.96 48.14 46.68 40.86 40.58 33.61 31.03 32.07 25.64 28.55 32.25 39.44 38.30
55.41 54.54 52.70 52.50 51.95 51.67 51.66 51.01 51.18 51.22 51.30 51.25 51.44 51.36 51.06 50.87 51.21 52.43 55.35 54.92 54.82 53.45 51.80 51.00 49.42 42.29 44.77 42.57 47.43 48.91 49.83 49.29 46.06 45.63 43.64 42.88 40.52 35.95 35.63 32.35 20.03 25.78 27.76 30.53 30.36 36.20 38.25
52.08 51.78 52.25 51.85 51.45 51.33 51.15 50.62 50.41 50.32 50.35 51.18 50.99 50.78 50.72 50.48 50.98 51.64 51.77 48.73 43.79 42.55 45.57 42.03 42.32 42.48 43.80 47.15 49.07 46.70 48.62 46.44 45.38 41.91 34.93 38.54 31.07 29.10 31.62 33.53 33.79 32.31 29.89 27.94 31.81 36.59 34.98
49.72 49.70 51.44 51.35 51.25 51.22 51.11 50.82 50.50 49.20 49.71 50.28 50.24 50.57 50.18 50.45 51.00 52.67 50.50 45.03 44.47 46.04 39.07 45.22 45.24 44.51 46.37 47.25 41.42 44.80 48.85 41.27 39.43 34.43 37.34 33.93 28.40 34.23 36.84 36.41 34.52 32.66 29.74 29.08 32.55 36.20 35.16
49.93 50.79 51.42 51.21 51.13 50.96 50.72 50.56 50.50 50.30 50.06 49.32 50.29 50.15 49.93 50.25 50.82 50.34 46.01 45.82 49.53 48.04 40.32 41.08 43.11 42.89 43.44 45.56 41.54 41.97 45.28 42.45 37.54 34.43 34.34 30.48 33.54 38.12 35.34 34.29 32.49 31.39 29.80 29.87 30.33 34.26 35.16
52.31 51.04 51.12 51.25 51.13 50.96 50.81 50.90 50.85 50.63 49.87 49.42 50.03 49.77 49.71 49.35 46.88 47.09 44.49 48.45 49.06 47.60 34.37 34.65 38.53 41.93 43.78 44.59 39.30 47.30 46.87 42.93 38.58 34.00 35.21 33.74 37.11 34.88 34.18 33.53 34.63 29.30 35.93 34.57 33.00 31.20 25.18
51.80 50.89 50.85 51.13 51.17 51.22 51.26 51.27 50.88 50.59 50.08 49.64 49.50 49.25 48.82 48.52 45.55 43.90 45.78 49.01 48.83 46.05 23.79 36.65 38.28 47.45 44.86 41.02 41.95 42.21 47.96 43.14 36.04 36.25 35.97 32.48 35.47 34.64 32.91 33.01 36.76 34.53 37.83 36.84 34.77 31.96 30.26
51.07 50.84 50.83 50.97 50.91 51.18 51.28 51.07 50.77 50.54 50.30 49.90 48.94 48.53 47.64 47.61 47.47 48.04 50.09 48.83 46.14 31.73 23.77 34.41 38.83 38.02 37.87 40.63 41.19 42.17 41.91 43.28 40.73 36.94 35.93 34.26 39.61 37.18 35.64 38.80 39.61 41.27 35.67 35.40 34.32 32.50 24.90
50.74 51.31 51.47 51.44 51.53 51.68 51.71 51.23 50.97 50.80 50.43 49.88 48.72 48.43 46.55 48.22 43.12 50.31 49.16 44.47 31.16 26.03 35.77 32.00 33.98 37.12 37.07 36.43 38.15 38.72 36.77 35.09 33.76 30.17 30.64 35.37 36.26 39.46 39.52 37.01 41.18 39.44 32.41 26.84 23.02 21.90 26.13
51.14 51.83 52.22 52.49 52.52 52.41 51.73 51.10 50.97 50.28 49.24 48.66 49.64 48.76 47.61 48.15 49.23 50.12 46.42 36.27 26.56 33.43 33.20 38.42 36.76 37.19 34.58 37.32 38.00 38.03 35.78 33.97 36.00 35.05 33.06 30.21 25.26 37.34 41.26 38.51 35.62 36.83 35.87 29.38 21.84 24.38 27.10
51.58 52.23 52.50 53.16 53.57 53.48 52.53 51.38 51.18 50.80 50.16 49.61 49.28 47.20 46.27 47.81 49.34 49.09 40.21 30.30 29.83 34.12 36.94 35.68 36.53 33.58 33.98 37.38 37.62 37.14 36.26 35.10 37.84 37.10 32.86 30.52 29.50 40.26 40.89 41.01 40.47 35.61 33.53 36.91 32.07 32.47 30.30
51.70 52.99 53.65 54.25 54.14 53.75 53.04 51.52 51.17 50.86 50.65 48.63 44.62 44.33 43.75 49.26 49.48 44.86 35.81 31.95 34.52 39.48 39.85 38.98 32.51 36.20 31.38 34.08 34.57 35.75 35.27 37.01 36.37 39.97 40.57 36.10 30.61 38.17 39.76 41.88 41.71 37.45 39.30 29.82 31.77 25.15 24.85
52.61 53.39 54.27 54.65 54.54 53.75 52.98 51.66 51.43 51.44 50.41 49.23 45.49 39.08 45.75 49.32 47.94 39.34 31.85 33.62 37.62 42.35 42.41 38.41 35.57 34.95 35.37 34.38 35.95 35.73 35.19 38.28 39.72 39.99 40.22 38.27 35.50 35.41 38.46 36.61 35.93 35.99 34.43 35.17 34.29 31.81 27.62
52.98 53.85 54.49 54.27 54.56 53.88 52.41 51.81 51.69 51.31 51.57 49.68 43.30 34.55 45.81 49.22 36.83 37.32 34.74 36.37 41.03 40.77 44.08 41.03 40.27 38.86 36.59 37.21 36.33 35.98 35.19 38.56 42.24 41.73 37.55 40.04 35.87 32.18 34.92 39.51 40.21 38.41 36.00 34.71 25.94 26.90 28.45
52.97 54.32 54.00 54.27 54.13 53.32 52.07 51.54 51.07 51.42 52.07 46.26 38.79 39.18 46.58 47.02 34.08 35.04 38.58 38.47 39.94 40.54 41.11 40.20 38.30 40.41 40.57 37.43 34.20 37.42 38.51 42.18 42.85 41.49 37.40 38.95 32.89 26.52 29.10 33.86 37.61 36.00 37.66 37.33 36.25 34.36 26.97
52.81 54.10 53.52 53.48 53.43 52.24 51.36 50.54 50.91 51.53 51.75 49.29 40.97 33.88 40.32 42.79 41.42 38.35 37.17 36.57 37.92 43.12 41.17 42.05 40.78 41.62 39.30 36.98 38.98 36.07 37.47 41.65 41.68 41.44 42.22 40.03 34.72 29.52 23.74 28.15 34.06 31.86 35.52 36.63 34.15 25.84 28.61
52.48 53.82 53.28 52.18 51.39 51.29 51.26 51.63 51.78 51.85 52.40 49.30 43.45 37.72 40.72 35.43 37.47 39.58 39.52 38.88 37.96 37.30 41.88 42.16 39.60 39.94 38.53 34.97 36.27 35.22 37.65 38.81 41.34 42.24 39.84 38.31 29.89 28.60 32.94 34.91 35.60 34.59 34.86 35.45 32.15 32.78 27.33
51.69 53.15 52.76 52.57 52.56 52.32 52.11 51.25 50.92 50.75 50.79 48.04 41.56 38.81 41.42 38.74 39.92 39.71 39.19 38.42 38.05 38.99 39.06 38.42 38.09 39.90 39.66 36.19 36.94 35.06 37.93 37.36 35.81 39.71 36.90 39.09 29.86 30.35 27.13 34.61 34.53 30.91 33.91 35.46 35.72 35.60 34.77
50.99 52.37 52.25 52.14 51.83 51.21 50.90 50.51 50.31 49.88 50.34 46.65 46.15 46.03 42.11 38.56 38.19 37.59 37.42 38.96 39.36 41.12 40.77 41.10 39.97 39.30 37.73 38.32 40.68 41.05 40.27 40.22 37.62 36.20 36.46 35.56 31.71 27.89 25.93 32.41 31.06 25.89 30.35 32.46 34.71 36.11 34.97
50.23 51.39 52.34 51.32 51.56 51.69 51.46 51.27 50.55 49.57 48.55 47.99 45.28 44.56 39.56 33.91 37.22 38.14 40.64 40.92 39.58 40.09 38.64 40.93 40.72 39.67 40.07 43.30 42.60 41.86 40.46 39.54 39.27 37.84 39.12 34.92 32.98 30.05 24.50 27.33 19.25 29.48 35.08 35.59 34.16 36.50 37.10
49.83 50.81 51.99 51.94 52.01 51.65 51.74 51.61 51.09 49.41 48.76 45.23 44.54 42.89 40.92 34.56 38.25 39.95 40.37 39.90 40.48 40.31 39.25 40.06 40.66 41.04 43.05 40.40 36.62 33.71 33.67 34.33 35.97 37.23 36.81 37.73 34.44 27.43 23.30 22.84 28.59 30.59 33.55 33.34 31.86 32.19 36.79
49.33 50.02 51.25 51.45 51.40 51.88 51.97 51.83 51.03 48.80 48.34 46.42 42.82 43.22 42.97 37.82 34.84 40.18 39.49 40.37 37.49 36.92 37.90 39.61 42.52 43.79 41.65 38.31 34.33 25.98 25.23 28.16 28.01 31.57 37.43 38.16 36.51 30.29 28.32 22.80 20.50 30.08 34.90 37.36 35.97 27.03 36.02
48.81 49.50 49.89 50.95 50.90 50.75 50.83 51.29 51.11 49.68 48.23 46.19 42.10 43.23 41.95 37.28 36.87 37.45 36.54 37.02 40.18 38.35 37.02 38.04 38.95 39.63 40.46 35.64 30.48 27.54 26.08 30.63 26.09 25.23 26.42 29.74 30.41 26.28 27.01 23.63 28.36 34.20 36.15 36.84 24.14 26.79 36.17
47.89 48.95 49.15 49.53 50.25 50.32 50.16 50.56 50.52 50.15 48.64 46.56 42.03 43.14 41.36 38.34 36.36 38.42 38.68 36.40 38.33 39.14 36.38 38.42 37.65 38.33 37.73 33.04 30.81 29.64 27.71 29.93 27.66 29.86 27.85 27.86 25.63 25.83 26.57 22.18 19.88 35.91 34.30 29.78 32.94 34.04 35.59
46.81 48.23 48.74 48.94 49.07 49.93 49.81 50.24 49.74 49.76 48.33 48.01 41.76 43.86 43.42 38.94 35.74 39.31 38.83 38.57 37.06 36.41 34.74 39.18 37.13 38.15 37.99 34.61 33.22 31.98 29.21 29.92 29.30 24.57 31.47 26.05 30.78 28.28 29.36 29.29 35.05 35.73 35.01 35.57 36.10 35.43 34.46
MSLP
1020.67 1020.00 1019.53 1018.96 1018.56 1018.05 1017.64 1017.24 1017.23 1017.00 1016.66 1016.27 1016.00 1015.75 1015.50 1015.09 1014.73 1014.46 1014.19 1013.92 1013.58 1012.99 1013.40 1013.64 1014.45 1014.81 1015.40 1014.75 1013.80 1014.15 1014.33 1014.54 1014.53 1014.53 1014.54 1014.46 1014.63 1014.60 1014.66 1014.36 1014.21 1013.71 1013.59 1013.34 1013.00 1012.56 1012.12
1020.39 1019.85 1019.35 1018.71 1018.32 1017.89 1017.33 1016.93 1016.81 1016.63 1016.35 1015.85 1015.54 1015.49 1015.14 1014.78 1014.44 1014.19 1013.68 1013.46 1012.85 1012.81 1013.01 1013.74 1014.49 1014.73 1015.10 1014.14 1013.62 1013.90 1014.23 1014.49 1014.37 1014.59 1014.80 1014.81 1014.80 1014.89 1015.10 1015.16 1015.06 1014.28 1013.88 1013.60 1013.27 1012.96 1012.68
1020.11 1019.40 1018.81 1018.24 1017.77 1017.49 1017.34 1016.71 1016.34 1016.15 1015.97 1015.54 1015.24 1014.99 1014.75 1014.44 1014.10 1013.74 1013.27 1012.89 1012.34 1012.31 1012.99 1013.75 1014.37 1014.52 1014.33 1013.66 1013.53 1013.99 1014.39 1014.49 1014.60 1014.79 1014.64 1014.89 1015.34 1015.50 1015.38 1015.41 1015.00 1014.73 1014.46 1014.01 1013.63 1013.24 1012.75
1019.71 1019.08 1018.42 1017.90 1017.32 1016.90 1016.97 1016.73 1016.07 1015.76 1015.55 1015.30 1014.90 1014.65 1014.45 1014.16 1013.62 1013.00 1012.56 1012.22 1011.33 1012.07 1013.16 1013.95 1014.28 1014.23 1013.77 1013.59 1013.70 1014.09 1014.45 1014.59 1014.80 1015.02 1015.02 1015.21 1015.71 1015.77 1015.94 1015.98 1015.73 1015.47 1014.82 1013.75 1013.03 1012.51 1011.96
1019.01 1018.69 1018.09 1017.63 1017.10 1016.66 1016.35 1016.45 1015.95 1015.40 1015.14 1014.97 1014.57 1014.30 1014.10 1013.81 1013.37 1011.99 1011.09 1011.67 1011.89 1012.39 1013.42 1014.15 1014.43 1014.31 1013.66 1014.17 1013.92 1013.90 1014.29 1014.66 1015.03 1015.21 1015.44 1015.38 1015.85 1015.89 1016.14 1016.42 1016.35 1016.16 1015.01 1013.89 1012.69 1011.83 1011.36
1018.25 1018.51 1018.49 1017.70 1016.76 1016.49 1016.13 1015.82 1015.69 1015.10 1014.89 1014.56 1014.43 1014.09 1013.96 1013.62 1013.26 1013.07 1011.48 1011.98 1012.76 1013.14 1013.80 1014.14 1014.19 1014.64 1013.79 1013.39 1013.60 1013.81 1014.33 1014.65 1015.09 1015.29 1015.50 1015.66 1016.09 1016.14 1016.40 1017.00 1016.74 1015.82 1015.13 1014.05 1012.91 1011.92 1011.06
1018.38 1019.04 1018.16 1017.66 1016.84 1016.39 1015.86 1015.52 1015.38 1014.83 1014.35 1014.46 1014.27 1013.99 1013.81 1013.67 1013.38 1013.19 1012.92 1012.94 1013.75 1014.55 1014.04 1013.28 1013.31 1012.83 1012.80 1013.26 1013.75 1014.09 1014.49 1014.99 1015.25 1015.49 1015.57 1015.85 1016.52 1016.19 1016.15 1016.36 1016.09 1015.95 1015.37 1014.18 1013.20 1012.44 1011.61
1018.39 1018.24 1017.60 1017.05 1016.30 1016.07 1015.62 1015.12 1014.76 1014.49 1014.09 1014.16 1013.88 1013.75 1013.73 1013.52 1013.32 1013.07 1013.48 1012.92 1013.17 1013.32 1013.37 1013.35 1013.04 1012.90 1013.21 1013.41 1013.81 1014.28 1014.84 1015.25 1015.60 1015.56 1015.61 1016.29 1015.97 1015.70 1015.61 1015.54 1015.44 1015.21 1014.82 1013.69 1012.72 1012.58 1012.11
1018.28 1017.79 1016.81 1016.28 1015.98 1015.66 1015.28 1014.82 1014.37 1014.10 1013.85 1013.74 1013.68 1013.58 1013.64 1013.40 1013.19 1013.22 1013.43 1013.68 1013.62 1013.17 1012.96 1013.72 1013.80 1013.53 1013.68 1013.97 1013.55 1014.26 1015.05 1015.14 1015.52 1015.46 1015.54 1015.85 1015.23 1014.78 1015.24 1015.03 1015.06 1014.39 1014.18 1013.29 1013.11 1012.69 1012.44
1018.18 1017.45 1016.71 1016.08 1015.61 1015.27 1015.02 1014.47 1013.97 1013.77 1013.73 1013.75 1013.57 1013.57 1013.61 1013.34 1013.58 1013.71 1013.67 1014.20 1014.09 1013.49 1013.32 1014.27 1014.04 1013.47 1013.84 1013.93 1013.96 1014.13 1014.82 1015.19 1015.36 1015.37 1015.31 1015.54 1014.89 1014.84 1014.46 1014.42 1014.53 1013.38 1012.77 1012.65 1012.72 1012.80 1011.69
1017.93 1017.33 1016.64 1016.09 1015.58 1015.09 1014.59 1014.04 1013.70 1013.54 1013.42 1013.37 1013.45 1013.66 1013.79 1013.72 1013.90 1013.90 1014.49 1014.18 1014.05 1013.61 1013.53 1013.99 1013.71 1013.60 1013.60 1013.98 1014.19 1014.66 1014.88 1015.36 1015.54 1015.45 1016.11 1014.95 1014.41 1014.33 1014.06 1013.64 1013.52 1012.47 1012.26 1011.99 1012.02 1012.03 1011.94
1017.99 1017.31 1016.49 1015.88 1015.26 1014.73 1014.25 1013.75 1013.46 1013.18 1013.13 1013.12 1013.32 1013.81 1013.96 1013.64 1013.85 1013.72 1013.99 1014.05 1014.22 1014.04 1013.44 1013.71 1013.82 1013.75 1013.94 1014.03 1014.21 1015.06 1015.61 1016.19 1016.62 1016.20 1015.73 1015.07 1014.34 1014.24 1013.24 1012.43 1012.11 1011.70 1012.04 1011.56 1011.52 1011.58 1010.67
1017.86 1017.14 1016.33 1015.58 1014.95 1014.42 1013.90 1013.37 1012.91 1012.68 1012.67 1012.89 1013.34 1013.83 1014.21 1014.02 1014.05 1014.03 1014.06 1014.21 1013.93 1013.34 1013.24 1013.55 1013.33 1013.55 1013.44 1013.66 1014.18 1014.88 1015.48 1015.89 1016.15 1016.07 1015.20 1013.71 1013.06 1012.32 1012.41 1011.71 1010.52 1011.12 1011.17 1010.62 1011.00 1010.90 1009.21
1017.73 1016.96 1016.14 1015.23 1014.38 1013.82 1013.39 1013.01 1012.60 1012.43 1012.44 1012.80 1013.23 1013.85 1014.25 1014.26 1014.06 1014.03 1014.09 1014.34 1013.59 1013.05 1012.62 1012.52 1012.81 1012.98 1013.34 1013.18 1013.49 1014.28 1014.80 1015.09 1015.44 1015.62 1014.93 1013.71 1012.59 1011.79 1011.46 1011.46 1011.03 1010.34 1010.51 1010.13 1009.78 1009.00 1008.91
1017.63 1016.84 1015.79 1014.70 1013.70 1012.89 1012.65 1012.75 1012.43 1011.99 1011.47 1012.36 1013.08 1013.85 1014.32 1014.53 1014.47 1014.38 1014.32 1014.13 1013.96 1013.04 1012.24 1011.88 1012.34 1012.43 1012.44 1012.57 1012.81 1013.38 1013.87 1014.22 1014.19 1014.49 1014.54 1013.56 1012.58 1011.62 1011.44 1011.21 1010.86 1010.29 1009.97 1009.95 1009.37 1008.68 1008.57
1017.47 1016.57 1015.39 1014.09 1013.09 1012.63 1012.47 1012.77 1012.73 1012.42 1012.16 1012.45 1013.40 1013.69 1014.60 1014.87 1015.07 1014.96 1014.69 1014.41 1013.68 1012.54 1011.43 1011.11 1010.89 1010.73 1011.21 1011.69 1012.30 1012.90 1013.31 1013.98 1013.82 1013.83 1014.00 1013.23 1012.29 1011.30 1011.23 1010.88 1010.48 1010.51 1009.68 1009.21 1008.78 1008.31 1008.44
1017.61 1016.36 1015.22 1013.83 1012.86 1012.66 1012.71 1013.01 1013.27 1013.17 1013.53 1013.12 1013.00 1014.07 1015.73 1015.35 1015.24 1015.39 1015.19 1014.51 1013.50 1012.19 1011.51 1010.91 1010.13 1009.93 1010.40 1011.05 1011.72 1012.02 1012.71 1013.21 1013.27 1013.06 1013.35 1012.96 1012.49 1011.44 1011.01 1010.51 1009.88 1009.73 1008.76 1008.42 1008.12 1007.83 1008.56
1017.78 1016.30 1015.33 1014.12 1013.38 1013.25 1013.42 1013.56 1013.84 1013.71 1013.53 1013.67 1013.89 1015.17 1016.49 1015.96 1015.81 1015.73 1015.06 1014.60 1013.75 1012.40 1011.11 1010.51 1010.03 1009.82 1010.10 1010.61 1010.96 1011.30 1011.63 1011.82 1012.13 1012.14 1012.10 1011.65 1011.53 1010.91 1010.06 1009.45 1009.19 1008.91 1008.31 1007.78 1007.97 1008.18 1008.13
1017.97 1016.68 1015.67 1014.87 1014.28 1014.41 1014.42 1014.48 1014.41 1014.21 1014.06 1014.24 1015.19 1016.18 1016.51 1016.28 1015.65 1015.20 1014.83 1014.37 1013.59 1011.90 1010.97 1010.43 1010.37 1010.37 1010.39 1010.31 1010.63 1010.94 1011.13 1011.35 1011.54 1011.58 1011.68 1011.59 1011.19 1010.75 1010.16 1009.76 1008.93 1008.58 1008.10 1007.79 1007.49 1007.62 1008.67
1018.27 1017.07 1016.12 1015.84 1015.55 1015.62 1015.54 1015.39 1015.20 1014.74 1014.39 1014.12 1015.18 1016.22 1016.47 1016.12 1015.15 1014.20 1013.98 1013.76 1012.75 1011.84 1011.19 1010.80 1010.71 1010.53 1010.27 1010.31 1010.22 1010.66 1010.83 1011.14 1011.24 1011.25 1011.44 1011.67 1011.50 1011.65 1011.49 1010.80 1010.30 1009.47 1008.76 1008.41 1008.35 1008.71 1009.34
1018.89 1017.86 1016.77 1016.38 1016.40 1016.40 1016.31 1016.07 1015.81 1015.36 1014.82 1014.73 1014.31 1015.32 1015.14 1015.06 1013.97 1013.33 1013.05 1012.77 1012.13 1011.77 1011.37 1011.09 1010.95 1010.81 1010.59 1010.54 1010.54 1010.67 1010.80 1010.65 1010.89 1010.94 1011.07 1011.20 1011.74 1011.97 1011.59 1010.98 1010.39 1009.88 1009.58 1009.27 1009.15 1009.24 1009.50
1019.36 1018.56 1017.86 1016.95 1016.61 1016.72 1016.68 1016.58 1016.16 1015.50 1014.87 1014.66 1014.29 1014.57 1014.45 1013.86 1013.46 1012.95 1012.75 1012.39 1012.25 1012.25 1012.13 1011.64 1011.41 1011.21 1010.99 1011.48 1011.69 1011.25 1010.96 1010.94 1011.01 1010.64 1010.80 1011.05 1011.89 1012.25 1011.98 1011.28 1010.75 1010.54 1010.29 1010.01 1009.98 1010.07 1010.09
1019.73 1019.09 1018.47 1017.95 1017.47 1016.97 1016.90 1016.73 1016.37 1015.70 1014.94 1014.50 1014.44 1013.86 1013.96 1013.90 1013.28 1013.02 1013.13 1012.94 1012.82 1012.67 1012.92 1012.80 1012.50 1012.06 1012.41 1012.70 1012.24 1011.77 1011.33 1011.10 1011.03 1011.03 1010.96 1011.34 1012.02 1012.62 1012.39 1011.74 1011.38 1011.44 1011.28 1011.03 1010.76 1010.78 1011.11
1020.05 1019.44 1018.89 1018.50 1017.98 1017.70 1017.06 1016.73 1016.45 1016.05 1015.80 1015.28 1015.20 1014.73 1013.94 1014.09 1013.59 1013.52 1013.36 1013.24 1013.35 1013.26 1013.14 1013.31 1013.10 1012.69 1013.44 1013.03 1012.49 1011.87 1011.33 1011.13 1011.05 1011.06 1011.07 1011.34 1011.92 1012.53 1012.81 1012.14 1011.99 1011.80 1011.57 1011.52 1011.46 1011.23 1011.40
1020.43 1019.71 1019.11 1018.73 1018.55 1018.06 1017.57 1016.94 1016.57 1016.37 1015.91 1016.02 1016.00 1015.71 1014.75 1014.49 1014.24 1014.03 1013.83 1013.82 1013.81 1013.82 1013.87 1013.92 1013.84 1013.83 1013.69 1013.30 1012.75 1012.05 1011.63 1011.36 1011.09 1011.25 1011.32 1011.52 1011.82 1012.50 1012.95 1012.66 1011.98 1011.94 1011.90 1011.88 1011.85 1012.02 1011.93
1020.41 1020.21 1019.36 1018.87 1018.62 1018.41 1018.07 1017.61 1017.10 1016.59 1016.40 1015.90 1016.78 1016.47 1015.73 1015.05 1015.66 1014.82 1014.47 1014.20 1014.04 1014.09 1014.29 1014.36 1014.20 1013.97 1013.92 1013.56 1013.00 1012.69 1012.33 1012.19 1011.78 1011.50 1011.48 1011.63 1011.86 1012.69 1012.82 1012.85 1012.26 1012.05 1012.05 1012.07 1012.12 1012.52 1012.56
1020.22 1020.15 1019.93 1019.25 1018.81 1018.59 1018.44 1018.15 1017.63 1017.18 1016.49 1016.59 1016.79 1016.77 1016.59 1016.18 1016.73 1016.39 1016.10 1015.66 1014.85 1014.69 1014.66 1014.66 1014.37 1014.14 1014.07 1013.90 1013.52 1013.37 1013.10 1013.00 1012.64 1012.23 1012.09 1012.11 1012.21 1012.64 1012.90 1012.78 1012.00 1011.87 1011.94 1012.12 1012.60 1013.42 1012.77
1020.46 1019.85 1019.79 1019.45 1018.93 1018.62 1018.44 1018.11 1017.85 1017.39 1016.93 1016.38 1017.29 1016.90 1016.72 1016.91 1017.50 1017.37 1017.15 1016.89 1016.30 1015.93 1015.80 1015.31 1015.06 1014.73 1014.53 1014.54 1014.33 1014.09 1013.91 1013.55 1013.28 1012.56 1012.53 1012.70 1012.79 1012.78 1012.80 1012.80 1012.44 1011.87 1012.20 1012.54 1012.89 1012.88 1013.00
1020.35 1020.06 1019.71 1019.52 1019.23 1018.71 1018.34 1018.08 1017.98 1017.75 1017.13 1016.57 1016.76 1016.80 1016.95 1016.92 1017.99 1018.02 1018.01 1018.06 1018.05 1017.98 1017.59 1016.11 1015.82 1015.37 1015.25 1015.22 1014.92 1014.62 1014.43 1014.08 1013.78 1013.52 1013.09 1013.10 1012.96 1013.15 1012.80 1012.31 1011.92 1011.87 1012.22 1012.65 1012.86 1013.10 1013.31
Wind_Speed
18 19 19 19 19 18 16 18 17 17 19 19 17 21 18 19 21 20 21 18 18 22 16 13 11 9 3 5 5 11 10 10 8 5 2 1 3 4 6 6 9 12 12 14 15 15 14
21 21 22 21 18 18 18 17 16 15 17 18 19 17 20 20 21 23 23 18 13 10 16 14 12 9 4 6 9 10 6 11 8 4 4 1 3 6 5 8 11 11 15 16 14 14 14
20 21 20 21 22 20 19 19 16 15 17 17 17 19 19 21 22 23 24 23 24 16 17 16 12 7 7 1 8 7 5 7 3 3 4 3 3 2 7 9 7 10 13 14 14 16 18
21 21 20 22 21 20 21 22 18 16 17 18 18 17 18 20 22 23 30 25 7 20 17 15 11 5 3 6 4 7 5 5 5 3 2 6 3 4 4 8 10 13 14 14 13 16 18
25 20 21 23 24 21 19 20 19 16 17 17 16 18 19 20 23 31 17 9 17 21 16 12 5 5 4 3 5 7 7 8 7 5 1 2 1 3 3 4 5 5 11 15 14 12 11
24 26 22 25 23 20 20 16 18 17 17 17 17 17 17 18 20 23 23 20 18 12 10 6 3 5 6 5 6 7 5 4 7 5 3 3 1 1 1 2 5 8 9 15 15 11 11
28 24 23 24 24 20 19 16 15 15 17 19 17 15 16 16 17 18 11 8 8 5 6 5 10 5 10 10 9 6 7 6 3 4 4 4 0 5 7 14 17 14 17 19 17 17 17
15 12 17 21 17 20 18 17 16 9 16 17 16 15 13 13 16 17 5 3 5 3 4 1 4 8 10 9 6 8 6 7 5 6 6 2 9 12 11 15 16 18 18 21 22 18 17
14 17 19 17 18 19 18 18 16 13 15 13 14 12 11 12 16 5 3 6 8 9 3 6 4 2 4 3 4 10 8 4 5 7 7 8 8 15 14 14 16 17 17 20 19 16 15
18 23 22 18 18 18 18 19 17 15 12 9 11 9 9 13 3 3 3 2 6 6 3 5 6 5 4 4 2 8 9 3 4 5 5 6 10 12 14 15 11 19 10 19 18 11 6
26 23 21 21 19 21 22 19 17 14 12 9 8 6 7 5 2 3 1 4 5 3 6 7 9 5 7 4 9 4 5 3 6 2 3 4 6 6 10 8 5 8 11 12 8 9 11
28 25 22 21 22 21 21 17 15 14 11 9 4 4 7 2 2 2 6 6 2 2 5 5 5 6 8 8 5 5 2 5 2 2 6 14 10 9 8 12 15 7 3 2 3 1 4
25 27 26 23 23 23 22 17 16 13 12 7 2 4 2 2 2 1 5 2 1 3 6 7 7 10 10 6 8 7 5 3 2 3 2 6 8 8 12 10 10 3 3 3 3 2 2
26 28 29 29 25 22 17 16 15 12 6 4 10 8 3 4 3 2 1 1 1 2 6 7 8 9 5 10 5 4 4 2 6 3 4 4 2 5 5 2 7 12 7 2 5 2 3
28 29 31 31 29 24 14 12 16 14 7 22 16 4 3 3 3 2 1 2 4 5 2 9 12 6 2 5 1 4 3 2 2 9 2 3 4 2 4 4 4 6 4 4 5 1 2
28 30 32 31 29 21 14 7 12 14 23 19 4 5 5 7 4 3 3 4 3 3 6 13 5 5 6 5 2 5 1 0 3 3 3 5 5 2 3 3 6 5 5 3 2 6 4
29 30 33 31 25 16 12 9 13 13 13 15 4 4 4 3 3 4 3 3 3 5 2 2 4 3 7 4 4 2 3 5 5 4 8 6 3 3 4 3 4 2 5 4 2 1 1
29 30 31 29 23 16 14 14 14 12 11 6 4 5 3 5 3 0 2 2 6 7 2 2 6 7 3 3 2 3 2 2 2 2 5 7 2 4 2 3 4 5 7 6 4 7 4
29 28 28 28 21 18 18 16 14 12 13 3 4 3 3 3 1 1 3 4 3 4 6 4 4 5 5 2 2 5 1 2 2 3 4 6 4 5 3 2 3 3 11 10 3 3 6
27 26 25 26 23 22 20 18 16 15 17 3 4 4 1 2 4 2 4 1 2 1 7 7 4 1 3 2 2 3 3 2 0 2 2 1 3 4 2 2 4 6 9 9 6 4 4
26 24 22 23 22 20 18 16 15 14 16 5 2 2 1 3 4 5 2 3 9 5 3 2 1 5 5 2 4 3 1 4 6 5 4 1 3 3 3 3 3 5 7 9 9 8 7
24 24 21 21 21 20 19 18 17 17 18 2 1 4 4 2 3 5 2 8 8 5 8 8 6 9 9 7 6 6 7 5 4 5 2 1 0 3 3 4 2 4 9 7 8 8 7
21 22 18 17 18 18 17 17 18 19 11 2 2 2 3 2 4 3 3 4 6 4 4 7 9 4 6 4 8 6 2 1 2 4 5 2 1 3 3 5 4 2 5 6 2 7 4
18 19 16 16 15 15 14 16 17 19 14 3 3 3 1 1 1 4 2 6 6 7 4 5 7 5 2 6 8 8 4 2 3 4 2 1 2 2 4 3 2 3 3 2 4 3 5
17 17 16 13 15 14 15 16 17 17 16 4 4 4 3 1 3 3 5 4 6 4 3 3 4 3 5 5 3 3 3 3 3 3 4 4 2 1 2 2 4 3 2 2 4 3 4
15 16 15 13 13 14 14 14 15 14 15 3 3 3 3 2 2 8 2 2 2 4 3 2 2 3 3 3 3 2 1 2 2 2 2 3 3 2 4 1 2 2 3 1 2 2 3
11 13 14 12 12 13 14 14 12 12 11 3 2 3 3 1 4 4 3 4 3 2 3 2 2 2 2 3 2 2 2 1 2 3 3 3 2 0 3 2 2 4 4 1 1 3 4
9 11 12 11 11 11 12 13 11 10 10 4 1 4 2 2 2 4 4 4 4 3 2 1 0 2 2 2 0 1 2 1 3 2 2 1 2 3 1 1 5 4 1 2 2 2 2
8 10 10 11 10 10 10 10 11 12 11 8 2 1 4 4 2 3 3 3 3 2 2 3 2 2 3 2 1 2 3 1 2 3 2 2 3 2 2 4 2 3 3 3 2 1 2
Wind_Direction
331 325 324 326 319 319 315 316 323 320 321 325 332 324 338 333 329 323 322 309 300 308 179 159 169 164 172 204 251 134 136 144 161 169 136 52 312 282 261 281 286 266 271 273 284 289 291
330 329 330 327 325 323 316 314 317 310 312 317 324 328 329 333 330 321 316 304 283 249 157 162 171 159 249 228 99 138 180 167 163 188 131 177 352 357 319 278 276 294 303 297 298 297 297
322 323 326 328 326 326 324 322 317 312 309 313 319 325 328 325 325 320 312 305 303 184 154 159 163 179 229 285 136 125 162 199 192 203 150 110 350 322 337 305 309 309 289 280 274 268 258
311 316 323 329 329 328 331 328 319 318 312 312 315 320 325 323 324 312 307 294 184 137 146 143 170 208 259 76 140 158 159 165 150 146 47 51 325 288 275 288 297 298 281 275 265 252 247
306 316 325 327 328 326 327 329 329 331 327 317 318 324 326 325 331 314 294 136 120 120 128 139 153 219 178 136 179 180 169 163 161 155 140 235 259 247 310 308 320 244 269 272 285 284 247
301 334 332 328 324 330 332 335 328 331 328 323 316 322 324 330 333 353 112 117 96 100 123 141 273 195 167 176 147 156 174 173 166 171 216 208 174 337 272 187 239 289 282 284 285 290 294
38 349 333 326 330 327 324 328 323 331 325 315 318 320 323 330 329 339 99 116 94 82 249 176 171 73 123 100 132 155 154 182 177 205 235 111 300 226 239 230 244 262 272 276 279 284 282
34 325 317 313 334 324 331 330 323 308 300 310 313 314 322 327 327 306 257 307 33 92 158 329 139 69 122 154 139 150 174 191 201 218 192 217 266 249 263 270 279 269 270 265 275 264 276
358 330 323 344 335 333 329 326 330 323 315 309 323 318 333 328 334 39 102 49 336 317 82 128 73 129 148 203 165 169 195 203 217 248 240 252 269 317 303 276 271 263 259 264 262 294 280
338 345 339 346 339 336 334 330 333 332 319 312 311 323 348 328 339 336 56 75 291 304 107 120 180 194 134 203 226 138 200 214 210 261 269 255 258 260 274 275 269 276 273 253 255 259 257
346 343 342 341 345 338 336 338 334 328 326 322 321 3 35 5 6 346 58 277 279 317 147 150 128 146 152 179 133 162 185 206 256 289 26 248 299 257 270 255 217 252 303 285 248 241 265
347 341 343 340 335 336 340 333 330 320 317 316 335 100 23 13 228 127 166 222 230 196 103 133 126 169 156 209 126 135 103 62 41 292 248 259 270 293 244 268 273 279 297 335 167 195 245
347 341 337 334 333 330 329 324 328 327 322 334 80 150 70 351 8 39 168 255 138 1 203 128 154 155 178 176 161 179 184 174 200 306 253 287 210 230 217 278 281 258 208 190 185 169 313
345 339 334 330 323 318 326 332 332 336 314 124 130 130 132 78 18 191 109 46 47 95 71 118 140 162 195 173 153 149 143 239 224 233 284 329 318 13 22 357 297 309 319 325 307 29 91
347 341 333 331 332 334 323 334 344 356 5 127 116 89 74 63 48 344 54 58 21 18 134 134 147 167 145 153 150 174 217 18 186 193 263 313 245 5 68 305 333 350 332 275 287 35 272
349 337 334 334 335 341 357 349 5 34 106 116 109 112 65 76 107 24 36 60 349 261 170 166 148 235 155 149 101 141 163 265 253 245 199 307 313 97 335 302 208 179 275 3 262 349 42
347 343 343 348 353 5 30 38 26 41 102 147 97 57 45 75 51 34 21 22 342 53 34 287 72 110 102 119 177 199 124 199 208 228 185 265 204 337 347 175 295 258 321 223 202 184 305
350 354 358 3 10 35 60 51 37 22 354 68 24 68 326 311 65 325 6 25 326 323 282 55 16 60 76 83 88 93 68 75 46 275 243 206 291 267 246 138 258 265 312 329 72 325 359
353 2 14 14 30 51 51 45 44 18 15 99 60 72 295 309 328 25 78 3 288 358 40 50 79 30 313 22 56 111 72 84 54 287 348 349 305 317 95 297 301 336 349 357 302 5 341
355 7 31 30 44 48 42 36 27 15 6 1 115 97 260 253 257 262 117 198 145 311 62 61 85 192 224 146 308 136 128 151 346 338 252 319 44 26 112 292 292 337 346 11 23 49 35
358 10 38 46 48 40 40 30 21 2 346 321 36 99 212 185 255 100 150 242 75 61 23 320 92 13 327 108 125 80 5 193 194 190 221 345 68 68 321 322 305 340 2 18 19 16 79
1 8 28 53 54 38 29 21 3 346 329 245 162 161 235 214 260 126 218 61 78 61 354 56 54 38 43 51 20 35 344 27 74 296 89 299 214 21 291 15 37 32 11 22 22 355 51
6 9 20 29 38 45 40 24 13 1 349 27 258 282 301 284 303 92 3 21 66 357 56 35 332 50 52 16 338 336 13 120 83 6 351 49 98 28 292 349 323 257 8 7 27 47 359
9 8 19 20 33 32 40 35 21 18 14 306 6 306 276 198 354 97 127 75 68 16 88 33 6 360 30 302 296 274 268 278 66 32 25 336 138 139 265 327 353 173 86 312 305 43 39
2 8 10 18 12 17 20 26 27 20 19 43 351 341 327 152 126 143 147 110 118 101 54 42 29 9 321 306 285 253 230 232 151 117 6 16 304 20 101 264 156 153 98 26 18 91 42
1 0 9 16 14 4 0 7 14 31 11 87 51 297 286 118 42 342 172 317 231 117 145 56 210 283 301 271 272 297 5 325 310 289 178 273 212 134 345 18 292 108 125 43 303 188 81
357 359 357 8 12 10 6 357 359 7 35 25 52 9 292 63 41 2 356 339 330 307 74 145 208 260 144 307 329 348 337 3 302 316 1 321 341 252 301 270 316 128 125 289 60 212 75
339 352 350 352 4 4 356 352 347 358 358 76 216 349 77 29 66 7 17 3 339 336 327 31 30 229 286 274 323 359 287 150 316 205 327 306 8 224 57 286 291 140 104 157 175 113 45
319 336 345 338 348 353 358 355 353 347 350 328 77 100 317 89 119 2 66 75 58 82 328 321 299 14 14 320 326 334 278 174 312 281 5 294 189 239 193 223 177 194 91 119 68 15 106